Location: Amon Carter Post Office
(32.8281°N, 97.0484°W)
Time: 09:08:45
(UTC+00:00)

Meteor 2-6 Rocket - Pass Details

Date: 08 December 2021
Orbit: 805 x 915 km, 81.3° (Epoch: 25 January)

Event Time Altitude Azimuth Distance (km) Brightness Sun altitude
Rises 23:41:14 0° 173° (S) 3,484 7.6 -4.5°
Reaches altitude 10° 23:43:45 10° 169° (S) 2,533 6.9 -5.0°
Maximum altitude 23:49:19 52° 94° (E) 1,062 4.4 -6.1°
Drops below altitude 10° 23:54:45 10° 19° (NNE) 2,475 6.3 -7.1°
Sets 23:57:11 0° 15° (NNE) 3,397 7.0 -7.6°
